#timestamp,LO_Frequency,Hit,StdDev 
1624068015.3,286046998.3,N
1624068035.1,286046998.7,N
1624068036.0,286046998.7,N
1624068055.8,286046999.1,N
1624068075.7,286047001.0,N
1624068095.5,286047000.3,N
1624068115.3,286046998.4,N
1624068135.2,286046999.1,N
1624068155.0,286046998.7,N
1624068155.9,286046998.7,N
1624068175.8,286047000.4,N
1624068195.6,286047000.9,N
1624068215.4,286046998.2,N
1624068235.3,286046998.3,N
1624068255.1,286047000.9,N
1624068275.8,286046999.1,N
1624068295.7,286046998.8,N
1624068315.5,286046999.1,N
1624068335.4,286047001.1,N
1624068355.2,286046998.4,N
1624068375.0,286046998.2,N
1624068375.9,286046998.2,N
1624068395.8,286047000.7,N
1624068415.6,286047000.5,N
1624068435.4,286047000.3,N
1624068455.3,286047000.0,N
1624068475.1,286047000.5,N
1624068495.9,286047000.9,N
1624068515.7,286047000.8,N
1624068535.5,286046998.4,N
1624068555.4,286047001.1,N
1624068575.2,286047000.7,N
1624068595.0,286047011.9,Y
1624068596.0,286047001.2,P
1624068615.8,286047000.0,N
1624068635.6,286047000.5,N
1624068655.5,286046999.8,N
1624068675.3,286047002.8,Y
1624068695.1,286047002.8,P
1624068715.9,286047002.3,N
1624068735.7,286046998.1,N
1624068755.6,286046999.4,N
1624068775.4,286046997.3,N
1624068795.2,286046996.8,N
1624068815.1,286046999.1,N
1624068816.0,286046999.1,N
1624068835.8,286046999.3,N
1624068855.6,286046998.4,N
1624068875.5,286047001.2,N
1624068895.3,286047001.2,N
1624068915.2,286047000.6,N
1624068935.9,286046998.3,N
1624068955.7,286046999.5,N
1624068975.6,286046999.0,N
1624068995.4,286046999.4,N
1624069015.2,286046999.2,N
1624069035.1,286046999.5,N
1624069036.0,286046999.5,N
1624069055.8,286046997.0,N
1624069075.7,286046997.8,N
1624069095.5,286046995.0,Y
1624069115.3,286046997.2,P
1624069135.2,286046997.3,N
1624069155.0,286046997.5,N
1624069155.9,286046997.5,N
1624069175.8,286046997.4,Y
1624069195.6,286046998.6,P
1624069215.4,286047000.7,N
1624069235.3,286047001.2,N
1624069255.1,286047000.8,N
1624069275.8,286047001.2,N
1624069295.7,286047001.1,N
1624069315.5,286047000.8,N
1624069335.4,286047001.1,N
1624069355.2,286047000.5,N
1624069375.0,286047000.9,N
1624069375.9,286047000.9,N
1624069395.8,286046998.6,N
1624069415.6,286046996.6,Y
1624069435.5,286046996.7,P
1624069455.3,286046996.9,N
1624069475.1,286046996.8,N
1624069495.9,286046997.0,N
1624069515.7,286046997.5,N
1624069535.5,286046997.1,N
1624069555.4,286046997.0,N
1624069575.2,286046997.1,N
1624069595.1,286046996.5,Y
1624069596.0,286046996.5,P
1624069615.8,286046998.5,P
1624069635.6,286046998.3,N
1624069655.5,286046999.3,N
1624069675.3,286046998.8,N
1624069695.2,286046997.8,N
1624069715.9,286046994.9,Y
1624069735.7,286047000.6,P
1624069755.6,286046999.9,N
1624069775.4,286046999.9,N
1624069795.2,286047000.8,N
1624069815.1,286047000.7,N
1624069816.0,286047000.7,N
1624069835.8,286046998.1,N
1624069855.7,286046998.2,N
1624069875.5,286047001.2,N
1624069895.3,286046998.1,N
1624069915.2,286046999.3,N
1624069935.0,286046997.0,N
1624069935.9,286046997.0,N
1624069955.7,286046997.2,N
1624069975.6,286046997.4,N
1624069995.4,286046997.8,N
1624070015.3,286046995.1,Y
1624070035.1,286046996.8,P
1624070036.0,286046996.8,P
1624070055.8,286046997.9,N
1624070075.7,286046997.4,N
1624070095.5,286046997.2,Y
1624070115.4,286047000.7,P
1624070135.2,286047000.5,N
1624070155.0,286047002.5,N
1624070155.9,286047002.5,N
1624070175.8,286047004.1,N
1624070195.6,286047004.1,N
1624070215.4,286047003.4,N
1624070235.3,286047003.1,N
1624070255.1,286047003.9,N
1624070275.9,286047004.3,N
1624070295.7,286047004.1,N
1624070315.5,286047003.4,N
1624070335.4,286047003.3,N
1624070355.2,286047007.6,Y
1624070375.0,286047003.1,P
1624070375.9,286047003.1,P
1624070395.8,286047003.9,P
1624070415.6,286047002.5,Y
1624070435.5,286046998.2,P
1624070455.3,286046998.5,N
1624070475.1,286047000.6,N
1624070495.9,286047001.2,N
1624070515.7,286046998.6,N
1624070535.6,286046998.3,N
1624070555.4,286046998.7,N
1624070575.2,286046998.1,N
1624070595.1,286046999.1,N
1624070596.0,286046999.1,N
1624070615.8,286046998.8,N
1624070635.6,286046999.1,N
1624070655.5,286046999.3,N
1624070675.3,286046998.7,N
1624070695.2,286046998.9,N
1624070715.9,286047001.0,N
1624070735.7,286047000.1,N
1624070755.6,286047002.7,N
1624070775.4,286047000.7,N
1624070795.2,286047000.3,N
1624070815.1,286046999.9,N
1624070816.0,286046999.9,N
1624070835.8,286047000.6,N
1624070855.7,286046999.9,N
1624070875.5,286047000.5,N
1624070895.3,286047000.6,N
1624070915.2,286047000.6,N
1624070935.0,286046998.6,N
1624070935.9,286046998.6,N
1624070955.8,286047000.6,N
1624070975.6,286047001.2,N
1624070995.4,286047001.2,N
1624071015.3,286046998.4,N
1624071035.1,286047000.7,N
1624071055.8,286047000.7,N
1624071075.7,286047000.7,N
1624071095.5,286046999.8,N
1624071115.4,286047002.3,N
1624071135.2,286047001.4,N
1624071155.0,286047002.0,N
1624071155.9,286047002.0,N
1624071175.8,286047002.0,N
1624071195.6,286047000.1,N
1624071215.5,286046999.7,N
1624071235.3,286046999.9,N
1624071255.1,286047002.4,N
1624071275.9,286047000.9,N
1624071295.7,286046998.5,N
1624071315.5,286046998.3,N
1624071335.4,286047001.2,N
1624071355.2,286047001.0,N
1624071375.1,286047000.7,N
1624071376.0,286047000.7,N
1624071395.8,286046998.8,N
1624071415.6,286046998.3,N
1624071435.5,286047000.0,N
1624071455.3,286047002.7,N
1624071475.1,286047002.2,N
1624071495.9,286047001.9,N
1624071515.7,286047003.9,Y
1624071535.6,286047001.8,P
1624071555.4,286047002.6,P
1624071575.2,286046999.8,N
1624071595.1,286047001.6,N
1624071596.0,286047001.6,N
